• In India
  • List of Countries
  • For 7 days
  • Water Temperature
  • Satellite Maps
  • Weather Map
  • Weather Widgets
  • user-avatar
    Login

    Hourly Weather El Penol

    Today, 24 May, Thursday

    Time Temperature Precipitation Wind Pressure Humidity
    00:00 +16°C° 0.3 mm 1 mps 618 mmHg 89%
    01:00 +16°C° 0 mm 1 mps 618 mmHg 89%
    02:00 +16°C° 0.4 mm 1 mps 618 mmHg 89%
    03:00 +16°C° 0.4 mm 1 mps 617 mmHg 89%
    04:00 +16°C° 0.4 mm 1 mps 617 mmHg 90%
    05:00 +16°C° 0.5 mm 1 mps 618 mmHg 89%
    06:00 +18°C° 0.5 mm 1 mps 618 mmHg 88%
    07:00 +18°C° 0 mm 1 mps 619 mmHg 83%
    08:00 +18°C° 0.2 mm 2 mps 619 mmHg 80%
    09:00 +19°C° 0.2 mm 2 mps 620 mmHg 77%
    10:00 +20°C° 0.2 mm 2 mps 620 mmHg 74%
    11:00 +20°C° 0.5 mm 2 mps 620 mmHg 73%
    12:00 +21°C° 0.5 mm 2 mps 620 mmHg 73%
    13:00 +21°C° 0.5 mm 2 mps 619 mmHg 72%
    14:00 +21°C° 0.6 mm 2 mps 619 mmHg 73%
    15:00 +21°C° 0.6 mm 2 mps 619 mmHg 73%
    16:00 +21°C° 0.6 mm 2 mps 618 mmHg 74%
    17:00 +20°C° 0.5 mm 2 mps 618 mmHg 79%
    18:00 +19°C° 0.5 mm 2 mps 618 mmHg 84%
    19:00 +18°C° 0.5 mm 1 mps 617 mmHg 88%
    20:00 +18°C° 0.1 mm 1 mps 618 mmHg 88%
    21:00 +18°C° 0.1 mm 1 mps 618 mmHg 87%
    22:00 +18°C° 0.1 mm 1 mps 618 mmHg 87%
    23:00 +16°C° 0.1 mm 1 mps 618 mmHg 86%

    Tomorrow, 25 May, Friday

    Time Temperature Precipitation Wind Pressure Humidity
    00:00 +16°C° 0.1 mm 1 mps 618 mmHg 85%
    01:00 +16°C° 0.1 mm 1 mps 617 mmHg 85%
    02:00 +16°C° 0.1 mm 1 mps 617 mmHg 85%
    03:00 +16°C° 0.1 mm 1 mps 617 mmHg 85%
    04:00 +16°C° 0.1 mm 1 mps 617 mmHg 84%
    05:00 +18°C° 0.1 mm 1 mps 617 mmHg 84%
    06:00 +18°C° 0.1 mm 1 mps 617 mmHg 83%
    07:00 +18°C° 0.1 mm 1 mps 618 mmHg 82%
    08:00 +19°C° 0.1 mm 2 mps 618 mmHg 78%
    09:00 +20°C° 0.1 mm 2 mps 619 mmHg 73%
    10:00 +21°C° 0.1 mm 2 mps 620 mmHg 68%
    11:00 +22°C° 0.2 mm 3 mps 619 mmHg 67%
    12:00 +22°C° 0.2 mm 3 mps 619 mmHg 67%
    13:00 +24°C° 0.2 mm 3 mps 619 mmHg 66%
    14:00 +22°C° 0.7 mm 3 mps 618 mmHg 69%
    15:00 +21°C° 0.7 mm 3 mps 617 mmHg 72%
    16:00 +21°C° 0.7 mm 2 mps 617 mmHg 76%
    17:00 +20°C° 0.4 mm 2 mps 617 mmHg 80%
    18:00 +18°C° 0.4 mm 2 mps 616 mmHg 85%
    19:00 +18°C° 0.4 mm 1 mps 616 mmHg 90%
    20:00 +18°C° 0.3 mm 1 mps 617 mmHg 89%
    21:00 +16°C° 0.3 mm 1 mps 617 mmHg 88%
    22:00 +16°C° 0.3 mm 1 mps 617 mmHg 87%
    23:00 +16°C° 0.1 mm 1 mps 617 mmHg 87%

    Day after tomorrow, 26 May, Saturday

    Time Temperature Precipitation Wind Pressure Humidity
    00:00 +16°C° 0.1 mm 1 mps 617 mmHg 86%
    01:00 +16°C° 0.1 mm 1 mps 617 mmHg 85%
    02:00 +16°C° 0.1 mm 1 mps 617 mmHg 86%
    03:00 +16°C° 0.1 mm 1 mps 616 mmHg 87%
    04:00 +16°C° 0.1 mm 1 mps 616 mmHg 88%
    05:00 +16°C° 0 mm 1 mps 616 mmHg 87%
    06:00 +18°C° 0 mm 1 mps 617 mmHg 86%
    07:00 +18°C° 0 mm 1 mps 617 mmHg 85%
    08:00 +19°C° 0.1 mm 1 mps 618 mmHg 80%
    09:00 +20°C° 0.1 mm 2 mps 618 mmHg 76%
    10:00 +21°C° 0.1 mm 2 mps 619 mmHg 71%
    11:00 +21°C° 0.5 mm 2 mps 619 mmHg 73%
    12:00 +21°C° 0.5 mm 2 mps 619 mmHg 74%
    13:00 +21°C° 0.5 mm 2 mps 618 mmHg 76%
    14:00 +20°C° 1.9 mm 2 mps 618 mmHg 79%
    15:00 +20°C° 1.9 mm 1 mps 617 mmHg 82%
    16:00 +20°C° 1.9 mm 1 mps 616 mmHg 84%
    17:00 +19°C° 1.1 mm 1 mps 616 mmHg 86%
    18:00 +19°C° 1.1 mm 1 mps 616 mmHg 88%
    19:00 +18°C° 1.1 mm 1 mps 616 mmHg 89%
    20:00 +18°C° 0.5 mm 1 mps 617 mmHg 89%
    21:00 +16°C° 0.5 mm 1 mps 617 mmHg 90%
    22:00 +16°C° 0.5 mm 1 mps 617 mmHg 90%
    23:00 +16°C° 0.1 mm 1 mps 617 mmHg 89%

    27 May, Sunday

    Time Temperature Precipitation Wind Pressure Humidity
    00:00 +16°C° 0.1 mm 1 mps 617 mmHg 89%
    01:00 +16°C° 0.1 mm 1 mps 617 mmHg 89%
    02:00 +16°C° 0 mm 1 mps 617 mmHg 89%
    03:00 +16°C° 0 mm 1 mps 616 mmHg 89%
    04:00 +16°C° 0 mm 1 mps 616 mmHg 89%
    05:00 +16°C° 0.1 mm 1 mps 616 mmHg 89%
    06:00 +18°C° 0.1 mm 1 mps 617 mmHg 88%
    07:00 +18°C° 0.1 mm 1 mps 617 mmHg 87%
    08:00 +19°C° 0.1 mm 1 mps 618 mmHg 83%
    09:00 +19°C° 0.1 mm 2 mps 618 mmHg 80%
    10:00 +20°C° 0.1 mm 2 mps 619 mmHg 76%
    11:00 +20°C° 0.2 mm 2 mps 619 mmHg 75%
    12:00 +21°C° 0.2 mm 2 mps 618 mmHg 74%
    13:00 +21°C° 0.2 mm 2 mps 618 mmHg 72%
    14:00 +21°C° 0.6 mm 2 mps 618 mmHg 74%
    15:00 +20°C° 0.6 mm 2 mps 617 mmHg 77%
    16:00 +20°C° 0.6 mm 2 mps 617 mmHg 79%
    17:00 +19°C° 0.7 mm 2 mps 617 mmHg 83%
    18:00 +18°C° 0.7 mm 2 mps 617 mmHg 87%
    19:00 +18°C° 0.7 mm 1 mps 617 mmHg 91%
    20:00 +18°C° 0.6 mm 1 mps 617 mmHg 90%
    21:00 +18°C° 0.6 mm 1 mps 618 mmHg 89%
    22:00 +16°C° 0.6 mm 1 mps 618 mmHg 88%
    23:00 +16°C° 0.3 mm 1 mps 618 mmHg 88%

    28 May, Monday

    Time Temperature Precipitation Wind Pressure Humidity
    00:00 +16°C° 0.3 mm 1 mps 618 mmHg 87%
    01:00 +16°C° 0.3 mm 1 mps 617 mmHg 87%
    02:00 +16°C° 0.2 mm 1 mps 617 mmHg 87%
    03:00 +16°C° 0.2 mm 1 mps 617 mmHg 87%
    04:00 +16°C° 0.2 mm 1 mps 616 mmHg 87%
    05:00 +16°C° 0.1 mm 1 mps 617 mmHg 86%
    06:00 +16°C° 0.1 mm 1 mps 617 mmHg 85%
    07:00 +18°C° 0.1 mm 1 mps 618 mmHg 84%
    08:00 +19°C° 0 mm 1 mps 618 mmHg 80%
    09:00 +20°C° 0 mm 1 mps 619 mmHg 77%
    10:00 +21°C° 0 mm 2 mps 620 mmHg 74%
    11:00 +20°C° 0.3 mm 2 mps 619 mmHg 75%
    12:00 +20°C° 0.3 mm 2 mps 619 mmHg 76%
    13:00 +20°C° 0.3 mm 2 mps 619 mmHg 77%
    14:00 +20°C° 0.8 mm 2 mps 618 mmHg 79%
    15:00 +19°C° 0.8 mm 2 mps 618 mmHg 81%
    16:00 +19°C° 0.8 mm 2 mps 617 mmHg 83%
    17:00 +19°C° 0.5 mm 1 mps 617 mmHg 86%
    18:00 +19°C° 0.5 mm 1 mps 617 mmHg 90%
    19:00 +18°C° 0.5 mm 1 mps 617 mmHg 93%
    20:00 +18°C° 0.4 mm 1 mps 618 mmHg 93%
    21:00 +16°C° 0.4 mm 1 mps 618 mmHg 93%
    22:00 +16°C° 0.4 mm 1 mps 619 mmHg 93%
    23:00 +16°C° 0.4 mm 1 mps 618 mmHg 93%

    29 May, Tuesday

    Time Temperature Precipitation Wind Pressure Humidity
    00:00 +16°C° 0.4 mm 1 mps 618 mmHg 93%
    01:00 +15°C° 0.4 mm 0 mps 618 mmHg 93%
    02:00 +15°C° 0.6 mm 0 mps 617 mmHg 93%
    03:00 +15°C° 0.6 mm 0 mps 617 mmHg 93%
    04:00 +15°C° 0.6 mm 0 mps 617 mmHg 93%
    05:00 +15°C° 0.5 mm 0 mps 617 mmHg 92%
    06:00 +15°C° 0.5 mm 0 mps 617 mmHg 91%
    07:00 +15°C° 0.5 mm 0 mps 618 mmHg 91%
    08:00 +16°C° 0.4 mm 0 mps 618 mmHg 88%
    09:00 +19°C° 0.4 mm 1 mps 619 mmHg 85%
    10:00 +19°C° 0.4 mm 1 mps 619 mmHg 82%
    11:00 +20°C° 0.5 mm 1 mps 619 mmHg 80%
    12:00 +21°C° 0.5 mm 1 mps 619 mmHg 78%
    13:00 +21°C° 0.5 mm 1 mps 618 mmHg 76%
    14:00 +21°C° 0.8 mm 1 mps 618 mmHg 78%
    15:00 +21°C° 0.8 mm 1 mps 617 mmHg 80%
    16:00 +20°C° 0.8 mm 1 mps 617 mmHg 83%
    17:00 +19°C° 0.7 mm 1 mps 617 mmHg 86%
    18:00 +17°C° 0.7 mm 0 mps 617 mmHg 90%
    19:00 +16°C° 0.7 mm 0 mps 617 mmHg 93%
    20:00 +16°C° 0.5 mm 0 mps 617 mmHg 93%
    21:00 +16°C° 0.5 mm 0 mps 618 mmHg 92%
    22:00 +16°C° 0.5 mm 0 mps 618 mmHg 92%
    23:00 +16°C° 0.4 mm 0 mps 618 mmHg 91%
    Show more